When you browse on this site, cookies collect data to enhance your experience and personalize the content and advertising you see.
Visit our Privacy Policy to learn more. By continuing to use the site, you agree to this use of cookies and data.
  • In Lithuania
  • List of Countries
  • For 7 days
  • Water Temperature
  • Weather Map
  • Weather Widgets
  • user-avatar
    Login

    Hourly Weather Ordino

    Today, 1 April, Wednesday

    Time Temperature Precipitation Wind Pressure Humidity
    00:00 +2°C° 0.2 mm 2 mps 629 mmHg 95%
    01:00 +2°C° 0.1 mm 2 mps 629 mmHg 95%
    02:00 +2°C° 0.1 mm 2 mps 629 mmHg 95%
    03:00 +2°C° 0.1 mm 2 mps 629 mmHg 96%
    04:00 +1°C° 0 mm 2 mps 629 mmHg 95%
    05:00 +1°C° 0 mm 2 mps 629 mmHg 95%
    06:00 +2°C° 0 mm 1 mps 629 mmHg 95%
    07:00 +3°C° 0 mm 1 mps 629 mmHg 93%
    08:00 +4°C° 0 mm 1 mps 630 mmHg 90%
    09:00 +5°C° 0 mm 1 mps 630 mmHg 87%
    10:00 +6°C° 0.1 mm 1 mps 631 mmHg 86%
    11:00 +7°C° 0.1 mm 1 mps 631 mmHg 85%
    12:00 +7°C° 0.1 mm 1 mps 631 mmHg 83%
    13:00 +7°C° 0.2 mm 1 mps 631 mmHg 83%
    14:00 +8°C° 0.2 mm 1 mps 630 mmHg 83%
    15:00 +8°C° 0.2 mm 1 mps 630 mmHg 83%
    16:00 +7°C° 0.2 mm 1 mps 630 mmHg 86%
    17:00 +6°C° 0.2 mm 1 mps 629 mmHg 90%
    18:00 +5°C° 0.2 mm 1 mps 629 mmHg 93%
    19:00 +4°C° 0.2 mm 1 mps 629 mmHg 94%
    20:00 +4°C° 0.2 mm 1 mps 629 mmHg 95%
    21:00 +3°C° 0.2 mm 1 mps 629 mmHg 97%
    22:00 +3°C° 0.2 mm 1 mps 629 mmHg 96%
    23:00 +2°C° 0.2 mm 0 mps 628 mmHg 96%

    Tomorrow, 2 April, Thursday

    Time Temperature Precipitation Wind Pressure Humidity
    00:00 +1°C° 0.2 mm 0 mps 628 mmHg 96%
    01:00 +1°C° 0.1 mm 0 mps 628 mmHg 95%
    02:00 +1°C° 0.1 mm 0 mps 628 mmHg 95%
    03:00 +2°C° 0.1 mm 1 mps 627 mmHg 95%
    04:00 +2°C° 0.1 mm 1 mps 627 mmHg 95%
    05:00 +2°C° 0.1 mm 1 mps 627 mmHg 95%
    06:00 +2°C° 0.1 mm 1 mps 627 mmHg 96%
    07:00 +3°C° 0 mm 1 mps 628 mmHg 93%
    08:00 +4°C° 0 mm 1 mps 628 mmHg 91%
    09:00 +5°C° 0 mm 1 mps 629 mmHg 89%
    10:00 +5°C° 0.2 mm 1 mps 629 mmHg 90%
    11:00 +5°C° 0.2 mm 1 mps 629 mmHg 91%
    12:00 +6°C° 0.2 mm 1 mps 629 mmHg 92%
    13:00 +5°C° 0.5 mm 1 mps 629 mmHg 93%
    14:00 +5°C° 0.5 mm 1 mps 628 mmHg 94%
    15:00 +4°C° 0.5 mm 1 mps 628 mmHg 96%
    16:00 +4°C° 0.5 mm 1 mps 628 mmHg 96%
    17:00 +4°C° 0.5 mm 1 mps 628 mmHg 96%
    18:00 +3°C° 0.5 mm 1 mps 628 mmHg 97%
    19:00 +3°C° 0.1 mm 1 mps 628 mmHg 96%
    20:00 +2°C° 0.1 mm 1 mps 628 mmHg 96%
    21:00 +2°C° 0.1 mm 1 mps 629 mmHg 95%
    22:00 +2°C° 0 mm 1 mps 629 mmHg 95%
    23:00 +1°C° 0 mm 1 mps 628 mmHg 94%

    Day after tomorrow, 3 April, Friday

    Time Temperature Precipitation Wind Pressure Humidity
    00:00 +1°C° 0 mm 1 mps 628 mmHg 94%
    01:00 +1°C° 0 mm 1 mps 628 mmHg 94%
    02:00 0°C° 0 mm 1 mps 628 mmHg 94%
    03:00 -2°C° 0 mm 2 mps 628 mmHg 94%
    04:00 -2°C° 0 mm 2 mps 628 mmHg 93%
    05:00 -2°C° 0 mm 2 mps 628 mmHg 93%
    06:00 -2°C° 0 mm 2 mps 628 mmHg 93%
    07:00 +1°C° 0 mm 1 mps 629 mmHg 88%
    08:00 +3°C° 0 mm 1 mps 630 mmHg 82%
    09:00 +4°C° 0 mm 1 mps 630 mmHg 77%
    10:00 +6°C° 0 mm 1 mps 631 mmHg 73%
    11:00 +7°C° 0 mm 1 mps 631 mmHg 70%
    12:00 +8°C° 0 mm 1 mps 632 mmHg 66%
    13:00 +8°C° 0 mm 1 mps 632 mmHg 67%
    14:00 +8°C° 0 mm 1 mps 631 mmHg 68%
    15:00 +8°C° 0 mm 1 mps 631 mmHg 69%
    16:00 +7°C° 0.1 mm 1 mps 631 mmHg 76%
    17:00 +5°C° 0.1 mm 1 mps 630 mmHg 84%
    18:00 +3°C° 0.1 mm 0 mps 630 mmHg 91%
    19:00 +2°C° 0 mm 0 mps 630 mmHg 92%
    20:00 +3°C° 0 mm 1 mps 630 mmHg 93%
    21:00 +2°C° 0 mm 1 mps 630 mmHg 94%
    22:00 +2°C° 0 mm 1 mps 630 mmHg 93%
    23:00 +2°C° 0 mm 1 mps 631 mmHg 93%

    4 April, Saturday

    Time Temperature Precipitation Wind Pressure Humidity
    00:00 +2°C° 0 mm 1 mps 631 mmHg 92%
    01:00 +2°C° 0 mm 1 mps 630 mmHg 91%
    02:00 +1°C° 0 mm 1 mps 630 mmHg 90%
    03:00 +1°C° 0 mm 1 mps 630 mmHg 89%
    04:00 +1°C° 0 mm 1 mps 630 mmHg 88%
    05:00 +1°C° 0 mm 1 mps 630 mmHg 87%
    06:00 +1°C° 0 mm 1 mps 630 mmHg 85%
    07:00 +3°C° 0 mm 1 mps 631 mmHg 79%
    08:00 +6°C° 0 mm 1 mps 632 mmHg 73%
    09:00 +8°C° 0 mm 1 mps 633 mmHg 67%
    10:00 +9°C° 0 mm 1 mps 633 mmHg 66%
    11:00 +9°C° 0 mm 2 mps 634 mmHg 65%
    12:00 +10°C° 0 mm 2 mps 634 mmHg 64%
    13:00 +9°C° 0 mm 2 mps 634 mmHg 67%
    14:00 +9°C° 0 mm 2 mps 633 mmHg 70%
    15:00 +9°C° 0 mm 2 mps 633 mmHg 73%
    16:00 +8°C° 0 mm 2 mps 633 mmHg 77%
    17:00 +6°C° 0 mm 2 mps 632 mmHg 82%
    18:00 +5°C° 0 mm 2 mps 632 mmHg 86%
    19:00 +4°C° 0 mm 2 mps 632 mmHg 87%
    20:00 +3°C° 0 mm 2 mps 632 mmHg 87%
    21:00 +3°C° 0 mm 2 mps 632 mmHg 88%
    22:00 +2°C° 0 mm 2 mps 632 mmHg 88%
    23:00 +2°C° 0 mm 2 mps 632 mmHg 88%

    5 April, Sunday

    Time Temperature Precipitation Wind Pressure Humidity
    00:00 +1°C° 0 mm 2 mps 632 mmHg 88%
    01:00 +1°C° 0 mm 2 mps 631 mmHg 88%
    02:00 +1°C° 0 mm 2 mps 631 mmHg 88%
    03:00 -1°C° 0 mm 2 mps 631 mmHg 87%
    04:00 -1°C° 0 mm 2 mps 631 mmHg 83%
    05:00 -1°C° 0 mm 2 mps 631 mmHg 78%
    06:00 -1°C° 0 mm 2 mps 631 mmHg 74%
    07:00 +2°C° 0 mm 2 mps 631 mmHg 65%
    08:00 +5°C° 0 mm 2 mps 632 mmHg 56%
    09:00 +7°C° 0 mm 3 mps 633 mmHg 47%
    10:00 +8°C° 0 mm 3 mps 633 mmHg 45%
    11:00 +9°C° 0 mm 3 mps 633 mmHg 44%
    12:00 +10°C° 0 mm 3 mps 633 mmHg 42%
    13:00 +10°C° 0 mm 3 mps 633 mmHg 46%
    14:00 +9°C° 0 mm 3 mps 632 mmHg 49%
    15:00 +9°C° 0 mm 3 mps 632 mmHg 53%
    16:00 +8°C° 0 mm 3 mps 631 mmHg 61%
    17:00 +5°C° 0 mm 3 mps 631 mmHg 69%
    18:00 +4°C° 0 mm 3 mps 631 mmHg 77%
    19:00 +4°C° 0 mm 2 mps 631 mmHg 82%
    20:00 +3°C° 0 mm 2 mps 631 mmHg 86%
    21:00 +3°C° 0 mm 2 mps 631 mmHg 91%
    22:00 +3°C° 0.1 mm 2 mps 631 mmHg 92%
    23:00 +3°C° 0.1 mm 2 mps 631 mmHg 92%

    6 April, Monday

    Time Temperature Precipitation Wind Pressure Humidity
    00:00 +4°C° 0.1 mm 2 mps 631 mmHg 93%
    01:00 +4°C° 0 mm 2 mps 631 mmHg 93%
    02:00 +4°C° 0 mm 2 mps 631 mmHg 93%
    03:00 +4°C° 0 mm 2 mps 630 mmHg 94%
    04:00 +4°C° 0 mm 2 mps 631 mmHg 94%
    05:00 +5°C° 0 mm 1 mps 631 mmHg 94%
    06:00 +5°C° 0 mm 1 mps 631 mmHg 93%
    07:00 +6°C° 0 mm 1 mps 632 mmHg 89%
    08:00 +8°C° 0 mm 1 mps 633 mmHg 84%
    09:00 +9°C° 0 mm 1 mps 633 mmHg 79%
    10:00 +10°C° 0.1 mm 1 mps 634 mmHg 78%
    11:00 +10°C° 0.1 mm 1 mps 634 mmHg 76%
    12:00 +11°C° 0.1 mm 1 mps 634 mmHg 75%
    13:00 +11°C° 0.3 mm 1 mps 634 mmHg 76%
    14:00 +11°C° 0.3 mm 1 mps 634 mmHg 78%
    15:00 +10°C° 0.3 mm 1 mps 634 mmHg 80%
    16:00 +10°C° 0.3 mm 1 mps 634 mmHg 85%
    17:00 +9°C° 0.3 mm 1 mps 634 mmHg 90%
    18:00 +8°C° 0.3 mm 1 mps 634 mmHg 95%
    19:00 +8°C° 0.1 mm 1 mps 634 mmHg 95%
    20:00 +7°C° 0.1 mm 1 mps 634 mmHg 96%
    21:00 +6°C° 0.1 mm 0 mps 635 mmHg 96%
    22:00 +6°C° 0 mm 0 mps 635 mmHg 96%
    23:00 +6°C° 0 mm 1 mps 635 mmHg 96%
    Show more